{"data":{"norad_id":54844,"epoch":"2026-09-19T23:55:14.032416Z","epoch_age_seconds":136139,"freshness":"FRESH","line1":"1 54844U 22177AA  26262.99669019 -.00000150  00000+0  40954-5 0  9994","line2":"2 54844  43.0039 118.3894 0001727 261.8888  98.1767 15.27576891206645","mean_motion":15.27576891,"eccentricity":0.0001727,"inclination_deg":43.0039,"raan_deg":118.3894,"arg_perigee_deg":261.8888,"mean_anomaly_deg":98.1767,"bstar":4.0954e-6,"rev_number":20664,"period_min":94.266940569998,"perigee_km":481.87347707337,"apogee_km":484.24333396643,"semimajor_km":6861.1954055199,"source":"CELESTRAK","updated_at":"2026-09-21T09:00:33.136521Z"}}